• In Uzbekistan
  • List of Countries
  • For 7 days
  • Water Temperature
  • Satellite Maps
  • Weather Map
  • Weather Widgets
  • user-avatar
    Login

    Hourly Weather Burshi

    Today, 18 August, Saturday

    Time Temperature Precipitation Wind Pressure Humidity
    00:00 +11°C° 0 mm 1 mps 576 mmHg 73%
    01:00 +11°C° 0 mm 1 mps 576 mmHg 72%
    02:00 +11°C° 0 mm 1 mps 576 mmHg 71%
    03:00 +11°C° 0 mm 1 mps 576 mmHg 69%
    04:00 +11°C° 0 mm 1 mps 576 mmHg 69%
    05:00 +12°C° 0 mm 1 mps 576 mmHg 69%
    06:00 +12°C° 0 mm 1 mps 576 mmHg 69%
    07:00 +13°C° 0.3 mm 1 mps 577 mmHg 66%
    08:00 +15°C° 0.3 mm 1 mps 578 mmHg 62%
    09:00 +17°C° 0.3 mm 2 mps 579 mmHg 59%
    10:00 +17°C° 0.8 mm 2 mps 579 mmHg 58%
    11:00 +18°C° 0.8 mm 2 mps 579 mmHg 57%
    12:00 +18°C° 0.8 mm 2 mps 579 mmHg 57%
    13:00 +18°C° 1.2 mm 2 mps 578 mmHg 58%
    14:00 +17°C° 1.2 mm 2 mps 578 mmHg 60%
    15:00 +17°C° 1.2 mm 2 mps 578 mmHg 61%
    16:00 +16°C° 0.5 mm 2 mps 577 mmHg 65%
    17:00 +15°C° 0.5 mm 2 mps 577 mmHg 70%
    18:00 +14°C° 0.5 mm 1 mps 576 mmHg 74%
    19:00 +13°C° 0.1 mm 2 mps 576 mmHg 77%
    20:00 +12°C° 0.1 mm 2 mps 576 mmHg 81%
    21:00 +10°C° 0.1 mm 2 mps 576 mmHg 84%
    22:00 +10°C° 0.4 mm 2 mps 576 mmHg 85%
    23:00 +9°C° 0.4 mm 2 mps 576 mmHg 85%

    Tomorrow, 19 August, Sunday

    Time Temperature Precipitation Wind Pressure Humidity
    00:00 +9°C° 0.4 mm 2 mps 575 mmHg 86%
    01:00 +9°C° 0.4 mm 2 mps 575 mmHg 86%
    02:00 +8°C° 0.4 mm 2 mps 575 mmHg 85%
    03:00 +8°C° 0.4 mm 2 mps 575 mmHg 84%
    04:00 +8°C° 0.7 mm 2 mps 575 mmHg 83%
    05:00 +8°C° 0.7 mm 2 mps 575 mmHg 82%
    06:00 +8°C° 0.7 mm 2 mps 575 mmHg 81%
    07:00 +9°C° 0.2 mm 2 mps 576 mmHg 75%
    08:00 +11°C° 0.2 mm 1 mps 577 mmHg 69%
    09:00 +12°C° 0.2 mm 1 mps 577 mmHg 63%
    10:00 +13°C° 0.1 mm 2 mps 578 mmHg 60%
    11:00 +14°C° 0.1 mm 2 mps 578 mmHg 58%
    12:00 +15°C° 0.1 mm 2 mps 579 mmHg 55%
    13:00 +14°C° 0.1 mm 2 mps 578 mmHg 59%
    14:00 +14°C° 0.1 mm 2 mps 578 mmHg 64%
    15:00 +13°C° 0.1 mm 2 mps 577 mmHg 68%
    16:00 +12°C° 0.1 mm 2 mps 577 mmHg 73%
    17:00 +12°C° 0.1 mm 2 mps 577 mmHg 79%
    18:00 +10°C° 0.1 mm 2 mps 577 mmHg 84%
    19:00 +10°C° 0.1 mm 1 mps 577 mmHg 86%
    20:00 +10°C° 0.1 mm 1 mps 577 mmHg 87%
    21:00 +9°C° 0.1 mm 1 mps 577 mmHg 89%
    22:00 +9°C° 0 mm 1 mps 577 mmHg 90%
    23:00 +9°C° 0 mm 1 mps 577 mmHg 90%

    Day after tomorrow, 20 August, Monday

    Time Temperature Precipitation Wind Pressure Humidity
    00:00 +9°C° 0 mm 1 mps 577 mmHg 90%
    01:00 +8°C° 0 mm 1 mps 577 mmHg 91%
    02:00 +8°C° 0 mm 1 mps 577 mmHg 91%
    03:00 +8°C° 0 mm 1 mps 577 mmHg 91%
    04:00 +8°C° 0 mm 1 mps 577 mmHg 90%
    05:00 +7°C° 0 mm 0 mps 578 mmHg 89%
    06:00 +7°C° 0 mm 0 mps 578 mmHg 88%
    07:00 +9°C° 0 mm 1 mps 579 mmHg 82%
    08:00 +11°C° 0 mm 1 mps 579 mmHg 77%
    09:00 +12°C° 0 mm 2 mps 580 mmHg 71%
    10:00 +12°C° 0.1 mm 2 mps 580 mmHg 69%
    11:00 +13°C° 0.1 mm 2 mps 581 mmHg 68%
    12:00 +13°C° 0.1 mm 2 mps 581 mmHg 66%
    13:00 +13°C° 0.1 mm 2 mps 581 mmHg 66%
    14:00 +13°C° 0.1 mm 2 mps 581 mmHg 66%
    15:00 +13°C° 0.1 mm 2 mps 581 mmHg 66%
    16:00 +13°C° 0 mm 2 mps 580 mmHg 69%
    17:00 +12°C° 0 mm 2 mps 580 mmHg 73%
    18:00 +10°C° 0 mm 2 mps 580 mmHg 76%
    19:00 +9°C° 0 mm 2 mps 580 mmHg 79%
    20:00 +8°C° 0 mm 2 mps 579 mmHg 82%
    21:00 +8°C° 0 mm 1 mps 579 mmHg 85%
    22:00 +7°C° 0 mm 2 mps 579 mmHg 85%
    23:00 +7°C° 0 mm 2 mps 579 mmHg 84%

    21 August, Tuesday

    Time Temperature Precipitation Wind Pressure Humidity
    00:00 +7°C° 0 mm 2 mps 578 mmHg 84%
    01:00 +7°C° 0 mm 2 mps 578 mmHg 83%
    02:00 +7°C° 0 mm 2 mps 578 mmHg 82%
    03:00 +7°C° 0 mm 2 mps 578 mmHg 80%
    04:00 +7°C° 0 mm 2 mps 578 mmHg 78%
    05:00 +7°C° 0 mm 2 mps 578 mmHg 77%
    06:00 +9°C° 0 mm 1 mps 579 mmHg 75%
    07:00 +10°C° 0 mm 2 mps 580 mmHg 69%
    08:00 +12°C° 0 mm 2 mps 581 mmHg 63%
    09:00 +14°C° 0 mm 2 mps 582 mmHg 58%
    10:00 +15°C° 0 mm 2 mps 582 mmHg 56%
    11:00 +16°C° 0 mm 2 mps 582 mmHg 54%
    12:00 +17°C° 0 mm 2 mps 582 mmHg 53%
    13:00 +17°C° 0.3 mm 2 mps 582 mmHg 54%
    14:00 +17°C° 0.3 mm 2 mps 582 mmHg 55%
    15:00 +17°C° 0.3 mm 2 mps 581 mmHg 56%
    16:00 +16°C° 0.1 mm 2 mps 581 mmHg 61%
    17:00 +15°C° 0.1 mm 2 mps 581 mmHg 66%
    18:00 +13°C° 0.1 mm 1 mps 580 mmHg 71%
    19:00 +12°C° 0.1 mm 1 mps 580 mmHg 74%
    20:00 +11°C° 0.1 mm 1 mps 579 mmHg 76%
    21:00 +8°C° 0.1 mm 2 mps 579 mmHg 78%
    22:00 +8°C° 0 mm 2 mps 579 mmHg 74%
    23:00 +8°C° 0 mm 2 mps 578 mmHg 71%

    22 August, Wednesday

    Time Temperature Precipitation Wind Pressure Humidity
    00:00 +8°C° 0 mm 2 mps 578 mmHg 67%
    01:00 +8°C° 0 mm 2 mps 578 mmHg 66%
    02:00 +8°C° 0 mm 1 mps 578 mmHg 65%
    03:00 +8°C° 0 mm 1 mps 578 mmHg 64%
    04:00 +9°C° 0 mm 1 mps 578 mmHg 64%
    05:00 +9°C° 0 mm 1 mps 578 mmHg 64%
    06:00 +9°C° 0 mm 1 mps 579 mmHg 64%
    07:00 +11°C° 0 mm 1 mps 580 mmHg 61%
    08:00 +13°C° 0 mm 1 mps 581 mmHg 57%
    09:00 +15°C° 0 mm 2 mps 582 mmHg 54%
    10:00 +16°C° 0.2 mm 2 mps 582 mmHg 54%
    11:00 +17°C° 0.2 mm 2 mps 582 mmHg 54%
    12:00 +17°C° 0.2 mm 2 mps 582 mmHg 54%
    13:00 +17°C° 0.5 mm 2 mps 582 mmHg 55%
    14:00 +17°C° 0.5 mm 2 mps 581 mmHg 57%
    15:00 +17°C° 0.5 mm 2 mps 581 mmHg 58%
    16:00 +16°C° 0.3 mm 2 mps 581 mmHg 63%
    17:00 +15°C° 0.3 mm 1 mps 581 mmHg 68%
    18:00 +14°C° 0.3 mm 1 mps 580 mmHg 72%
    19:00 +12°C° 0 mm 1 mps 580 mmHg 75%
    20:00 +11°C° 0 mm 1 mps 580 mmHg 78%
    21:00 +10°C° 0 mm 1 mps 579 mmHg 80%
    22:00 +10°C° 0 mm 1 mps 579 mmHg 80%
    23:00 +9°C° 0 mm 1 mps 579 mmHg 79%

    23 August, Thursday

    Time Temperature Precipitation Wind Pressure Humidity
    00:00 +9°C° 0 mm 1 mps 579 mmHg 78%
    01:00 +9°C° 0 mm 1 mps 579 mmHg 78%
    02:00 +9°C° 0 mm 1 mps 579 mmHg 77%
    03:00 +9°C° 0 mm 1 mps 578 mmHg 77%
    04:00 +9°C° 0 mm 1 mps 579 mmHg 76%
    05:00 +9°C° 0 mm 1 mps 579 mmHg 75%
    06:00 +10°C° 0 mm 1 mps 579 mmHg 74%
    07:00 +12°C° 0 mm 1 mps 580 mmHg 67%
    08:00 +14°C° 0 mm 2 mps 581 mmHg 61%
    09:00 +16°C° 0 mm 2 mps 582 mmHg 54%
    10:00 +17°C° 0 mm 2 mps 582 mmHg 52%
    11:00 +18°C° 0 mm 2 mps 582 mmHg 50%
    12:00 +19°C° 0 mm 3 mps 582 mmHg 48%
    13:00 +19°C° 0 mm 3 mps 582 mmHg 47%
    14:00 +19°C° 0 mm 3 mps 582 mmHg 47%
    15:00 +19°C° 0 mm 3 mps 582 mmHg 47%
    16:00 +18°C° 0 mm 3 mps 581 mmHg 50%
    17:00 +16°C° 0 mm 2 mps 581 mmHg 54%
    18:00 +15°C° 0 mm 2 mps 580 mmHg 57%
    19:00 +14°C° 0 mm 2 mps 579 mmHg 56%
    20:00 +12°C° 0 mm 2 mps 579 mmHg 55%
    21:00 +10°C° 0 mm 2 mps 578 mmHg 54%
    22:00 +10°C° 0 mm 2 mps 578 mmHg 54%
    23:00 +9°C° 0 mm 2 mps 578 mmHg 54%
    Show more